Location: ????????
(56.1167°N, 38.6333°E)
Time: 20:55:45
(UTC+00:00)

USA 281 - Pass Details

Date: 18 November 2025
Orbit: 1079 x 1080 km, 106.0° (Epoch: 11 December)

Event Time Altitude Azimuth Distance (km) Brightness Sun altitude
Exits shadow 16:24:38 47° 141° (SE) 1,402 3.5 -26.2°
Maximum altitude 16:26:45 85° 57° (ENE) 1,093 3.1 -26.5°
Drops below altitude 10° 16:33:22 10° 330° (NNW) 2,932 5.9 -27.5°
Sets 16:35:53 0° 330° (NNW) 3,891 6.6 -27.8°
